RH
46 100 71 59 81 68 99 100 100 84 100 100 92 92 85 72 44 35 24 25 27 84 96 92 58 92 92 100 88 84 88 79 92 95 92 66 80 97 100 96 91 100 100 100 100 99 95
54 73 60 65 49 43 82 100 100 97 100 100 100 100 92 90 69 42 37 28 25 23 41 92 96 89 96 84 100 100 100 100 95 84 70 90 100 100 100 100 95 100 100 98 100 97 100
54 79 74 65 54 73 60 97 100 99 100 100 100 100 100 87 91 56 55 50 34 31 22 24 69 91 82 94 100 100 100 100 99 98 100 100 100 96 87 92 99 100 100 100 100 100 100
45 40 67 92 80 55 100 100 100 100 100 100 100 100 100 100 99 74 71 70 61 44 22 22 20 36 78 100 100 100 100 100 98 100 100 100 95 100 100 99 100 96 100 100 100 100 100
37 41 39 71 76 68 100 100 100 100 91 59 100 100 100 100 100 65 88 82 79 53 53 21 22 21 26 86 100 100 100 100 100 100 100 99 86 94 100 99 98 100 100 100 100 100 99
31 30 37 49 59 87 100 100 100 100 68 94 100 100 100 95 63 56 94 99 91 62 50 22 22 21 20 21 75 100 100 100 100 94 87 96 99 100 100 91 100 100 100 100 100 100 100
25 26 36 52 57 51 80 89 78 49 92 100 100 100 81 67 63 96 100 100 89 54 34 27 22 21 21 20 20 66 100 100 100 100 100 100 100 100 100 100 100 100 100 100 100 100 100
27 26 32 44 60 75 94 100 100 100 100 100 97 71 61 84 100 100 93 78 70 56 40 22 21 22 21 21 28 36 100 100 100 100 100 100 100 100 100 100 100 100 100 100 100 100 89
40 50 61 68 89 100 100 100 97 100 100 91 93 97 100 100 80 54 46 45 45 35 34 21 21 21 20 23 27 60 100 100 100 100 100 100 100 100 100 100 100 100 100 100 100 100 85
66 87 98 100 100 100 100 98 99 87 80 84 93 93 88 81 58 49 46 39 36 26 23 22 21 20 19 23 29 51 96 100 100 100 100 100 100 100 99 100 100 100 100 100 100 100 100
51 74 98 85 80 98 99 91 100 100 93 83 95 90 79 74 60 41 39 26 25 22 18 23 22 19 20 23 50 55 86 100 100 100 100 100 100 100 100 100 100 100 100 100 100 100 94
33 37 33 28 31 35 38 36 35 55 55 56 42 40 39 36 29 31 31 24 24 20 20 24 22 20 20 24 62 73 96 100 100 100 100 100 100 100 100 100 100 100 100 100 100 90 100
19 18 19 19 17 18 21 23 21 21 20 22 23 23 26 26 23 27 28 24 21 22 24 23 21 20 19 25 69 100 100 99 100 100 100 100 100 100 100 100 100 100 100 100 100 100 100
16 14 14 15 15 16 16 18 18 18 19 20 21 22 21 22 22 24 24 22 21 26 22 21 20 19 20 24 67 100 100 100 100 100 100 100 100 100 100 97 98 100 100 100 100 100 99
12 12 11 11 11 12 13 14 15 16 17 19 19 19 20 20 22 22 21 21 25 24 22 20 20 20 22 28 57 100 100 100 100 100 99 99 100 100 100 100 100 93 90 98 92 100 99
8 8 8 9 10 10 11 12 13 14 14 15 16 18 19 20 19 19 20 21 24 24 22 20 20 20 26 54 98 100 100 100 99 100 100 100 100 100 100 100 100 100 100 99 94 88 100
8 8 8 9 10 10 10 11 12 13 13 14 14 14 15 16 18 20 21 23 24 26 24 22 22 25 33 96 100 100 100 100 100 100 98 93 100 100 100 100 100 100 100 100 100 100 99
10 9 10 11 11 11 11 13 14 15 15 17 16 17 17 19 20 23 26 28 35 34 27 25 26 29 62 100 100 100 100 100 100 100 100 100 100 100 100 100 100 100 100 100 100 92 86
12 12 12 13 14 15 18 20 24 24 24 23 23 25 26 27 26 28 30 32 41 43 45 37 40 65 100 100 100 100 100 100 100 100 100 100 100 100 100 100 100 98 99 92 79 87 98
16 18 18 19 19 26 30 35 28 40 40 38 35 34 39 37 44 53 53 60 77 67 67 68 95 100 100 100 100 100 100 100 100 100 100 100 88 84 77 77 88 98 100 100 100 94 99
24 22 25 27 28 30 37 38 53 48 59 67 53 48 71 68 66 65 74 98 95 91 76 96 100 100 100 88 94 100 100 100 100 100 96 97 87 77 76 92 100 100 100 100 100 100 88
36 41 39 33 37 43 44 48 67 94 95 99 99 91 93 88 82 87 100 100 100 100 100 100 100 100 100 100 100 100 97 100 100 100 100 100 100 100 100 100 100 100 100 100 100 95 94
46 53 47 48 51 67 73 74 80 100 100 100 100 100 100 100 100 99 100 100 100 100 100 100 100 100 100 100 100 100 100 100 100 99 100 100 100 100 100 100 100 100 100 100 100 100 95
56 70 66 61 72 69 100 92 100 100 100 100 100 100 100 100 100 100 100 100 100 100 100 100 100 100 100 100 100 100 100 100 100 100 100 100 100 100 100 100 92 100 100 100 100 98 92
61 78 85 100 100 99 92 100 100 100 100 100 100 100 100 100 100 100 100 100 100 100 100 100 100 100 100 100 100 100 100 100 99 96 100 100 100 98 94 95 88 87 96 90 85 88 93
65 71 76 84 100 100 99 99 100 100 100 100 100 100 100 100 100 100 100 100 100 100 100 100 100 100 100 100 100 100 100 100 96 97 96 95 97 92 92 86 81 80 84 86 91 94 100
73 78 84 86 77 90 100 100 100 100 100 100 100 98 97 100 100 100 100 100 92 93 96 94 92 94 94 90 90 97 98 88 86 88 91 90 81 79 81 80 78 76 81 83 91 99 100
58 81 86 83 91 95 93 93 96 100 100 100 100 100 98 100 100 100 100 100 100 100 100 99 100 96 98 100 98 97 88 86 84 92 98 99 91 86 85 84 75 72 71 71 70 69 67
29 42 73 82 82 93 100 91 96 98 90 89 98 100 96 100 100 100 100 96 91 100 96 92 88 86 86 84 78 79 82 80 87 81 76 71 67 65 64 64 62 61 59 62 67 74 79
Wind_Speed
57 47 48 47 46 39 37 41 41 37 36 37 37 36 36 32 33 31 25 26 35 50 67 69 71 71 73 73 72 72 71 70 71 70 69 66 64 62 65 66 62 58 59 59 59 60 53
58 54 52 48 40 37 38 41 43 39 37 40 42 40 38 37 36 39 32 29 26 34 47 68 71 71 73 79 78 75 74 73 74 72 69 65 66 70 71 69 61 62 60 61 60 58 54
62 59 56 52 45 41 40 42 44 42 36 42 44 46 42 40 37 43 41 37 36 31 37 48 63 69 77 74 79 81 80 78 75 73 73 73 72 72 69 65 62 62 64 61 58 54 53
70 68 59 53 55 49 46 48 46 44 39 40 48 50 48 41 43 47 46 44 42 41 35 42 51 62 76 74 75 75 75 76 76 77 75 75 73 70 68 66 65 63 62 59 56 52 51
76 70 58 54 56 49 44 49 49 48 46 40 50 53 54 47 47 50 50 49 48 49 48 40 46 53 61 74 76 76 77 76 75 76 76 76 73 72 68 66 64 61 59 57 52 52 54
74 69 59 57 52 51 49 48 49 46 45 45 54 55 49 51 52 51 52 53 53 53 56 45 44 50 56 64 73 73 74 74 74 75 74 73 71 66 67 68 65 60 54 50 53 50 52
75 67 59 55 48 43 40 44 44 37 42 51 55 54 58 57 53 57 59 56 54 55 57 52 46 48 53 58 66 71 68 67 65 67 68 69 68 67 65 62 60 55 52 53 50 51 49
69 63 55 49 48 40 43 44 47 47 51 53 59 56 56 57 61 59 60 59 61 61 62 56 48 48 51 56 60 65 68 67 65 63 61 60 60 58 55 52 52 52 52 56 51 48 49
74 64 60 55 53 48 47 52 55 58 61 60 61 64 63 62 64 64 65 66 64 63 63 56 49 48 51 55 59 60 66 61 62 61 61 57 55 55 56 55 54 55 53 52 51 49 48
77 69 65 64 64 62 60 60 60 63 65 67 68 70 69 69 70 71 69 71 69 63 58 54 49 48 51 56 60 61 62 61 58 58 57 56 58 58 57 54 55 52 52 52 51 50 46
82 78 76 75 72 72 74 74 71 71 73 74 75 78 78 76 76 73 71 68 64 60 52 51 48 47 51 56 61 62 59 56 59 60 61 59 60 57 56 55 51 50 52 52 52 47 44
90 86 85 84 82 81 78 77 77 79 79 79 77 77 77 77 75 71 67 64 60 56 48 49 48 48 51 55 61 60 62 60 56 56 54 54 53 52 52 53 52 51 52 54 49 47 42
93 89 88 85 80 78 76 77 76 79 75 76 77 76 75 73 69 67 65 61 56 49 52 48 48 50 52 55 61 59 54 50 60 57 56 54 52 53 51 50 50 52 57 52 46 47 46
92 89 86 84 82 80 77 79 77 77 74 73 72 71 68 67 65 61 62 57 47 51 52 47 48 50 51 55 61 59 52 49 53 53 54 50 51 53 55 57 57 51 51 53 52 53 52
87 82 77 73 70 68 68 67 67 67 66 67 67 64 62 61 60 59 57 51 48 51 49 46 46 48 51 54 57 59 57 57 55 56 54 52 50 53 54 52 53 56 55 57 53 51 52
74 67 61 57 54 52 53 53 54 54 56 59 57 57 58 57 56 53 52 48 49 47 46 44 44 47 49 54 55 59 55 52 51 49 50 51 51 52 55 55 56 57 59 58 56 52 52
62 55 50 45 43 41 40 42 43 46 46 45 44 47 47 47 47 47 46 45 43 43 41 42 43 44 50 54 53 52 53 53 51 51 54 55 54 56 56 57 57 56 58 58 58 57 57
52 45 38 36 33 32 31 29 30 32 33 30 30 31 34 35 36 37 39 39 39 40 42 42 42 44 51 54 53 51 50 55 54 53 54 55 54 54 56 58 59 60 59 60 60 58 57
43 35 28 24 21 21 21 21 20 19 18 17 20 22 22 23 28 31 34 36 37 37 36 38 41 46 51 53 51 49 50 52 55 53 51 53 52 55 55 57 57 57 59 60 59 58 59
38 29 23 20 17 15 15 13 14 12 12 11 14 17 20 21 24 27 31 35 37 38 38 39 42 45 50 53 54 52 52 52 54 56 57 58 56 56 57 58 59 58 60 61 62 63 67
32 26 23 19 15 13 10 8 9 11 12 14 17 20 19 22 25 27 30 34 36 37 38 42 43 44 47 51 53 53 55 56 56 56 57 57 58 59 60 59 59 60 64 65 66 68 68
27 25 22 22 15 11 7 6 9 7 7 11 11 10 12 16 23 28 31 33 33 33 35 40 45 44 44 48 49 53 52 54 55 56 59 60 60 62 61 62 63 64 66 69 70 72 72
26 25 22 20 16 7 10 12 14 13 10 12 11 12 16 18 21 29 31 33 34 33 35 41 39 41 46 46 51 54 56 57 58 58 57 56 57 59 61 65 67 65 73 74 76 77 79
25 23 24 18 18 10 13 14 16 17 13 15 14 12 12 14 17 23 29 30 29 31 38 38 43 46 50 52 53 56 55 57 58 60 61 62 64 67 68 71 69 71 74 77 80 82 82
28 23 20 16 13 13 14 16 22 18 16 19 21 19 18 20 23 26 29 31 33 36 38 41 44 45 47 53 58 60 61 60 62 63 64 67 69 71 73 75 75 76 80 82 84 81 80
32 30 24 21 16 20 22 22 23 25 26 29 30 29 27 30 34 37 40 41 41 42 45 48 48 50 52 55 57 58 62 65 68 70 71 72 75 77 78 80 78 79 82 83 84 78 84
33 33 32 30 29 26 26 32 30 33 33 32 36 38 38 36 39 42 44 45 48 50 50 52 56 57 58 60 61 62 63 66 68 69 72 75 78 79 81 81 79 81 84 87 86 87 88
34 36 37 38 36 36 33 37 40 40 43 44 43 46 47 48 48 48 49 53 55 55 57 59 59 62 64 67 68 69 70 71 72 73 74 78 81 82 86 86 85 86 88 91 93 94 96
40 37 40 41 42 42 45 46 46 48 51 52 54 54 55 53 54 56 58 59 60 61 61 64 67 70 70 72 73 74 74 75 77 79 82 86 88 88 89 90 93 93 93 95 97 101 104
Wind_Direction
334 313 314 313 303 297 286 292 301 300 295 297 298 298 303 304 319 319 311 282 264 249 241 243 242 241 242 245 246 248 250 250 253 255 257 260 261 265 269 272 275 277 280 284 288 290 292
327 319 318 313 305 296 287 289 295 294 291 294 292 293 295 299 306 314 313 311 289 274 255 244 247 245 244 243 244 246 248 250 252 254 258 262 260 264 268 270 273 274 279 282 283 286 287
321 316 316 311 304 289 283 287 288 286 283 291 291 288 284 293 301 309 307 310 310 302 273 254 249 246 248 245 245 247 248 249 251 254 257 258 261 264 266 268 274 276 278 278 281 284 283
319 316 312 306 307 298 281 282 284 284 276 286 287 286 287 290 299 305 302 303 306 313 294 264 255 249 248 246 247 247 248 249 251 250 254 257 259 262 266 268 271 275 274 275 278 279 280
316 313 308 304 303 294 282 279 279 278 269 278 280 279 282 284 297 299 298 298 302 302 306 279 260 255 248 247 249 248 250 252 252 251 254 256 259 262 264 268 270 266 268 277 272 276 279
313 309 305 304 300 288 280 280 280 272 272 276 277 275 279 294 295 293 294 293 297 298 302 287 264 259 252 246 246 247 248 251 252 255 256 258 260 261 262 264 263 266 269 266 272 269 275
315 307 303 302 296 287 281 279 272 276 274 275 271 282 290 289 287 290 292 290 291 295 295 291 269 259 254 247 245 246 247 249 249 252 254 255 255 254 257 258 261 264 264 270 265 267 269
312 308 302 298 297 291 285 287 287 278 270 270 283 284 283 284 289 290 289 288 290 291 292 288 270 261 253 249 244 242 244 245 247 248 248 247 249 254 256 256 260 263 263 266 263 263 274
313 309 308 304 303 286 279 275 275 268 270 277 280 282 281 282 285 287 287 287 288 287 287 282 269 259 251 246 244 241 238 241 245 247 249 250 250 254 257 260 261 262 260 257 257 263 270
310 305 302 297 291 290 283 279 278 275 272 274 275 280 281 282 283 284 285 285 285 284 280 275 266 259 251 244 241 240 236 238 240 242 244 246 249 252 254 254 254 252 252 255 256 263 264
307 301 296 291 286 282 281 283 281 279 277 275 275 276 277 277 279 279 281 280 281 278 276 269 264 255 245 239 236 238 234 234 235 238 243 244 246 245 247 247 247 248 252 253 255 259 267
303 298 295 293 288 283 279 277 275 273 273 275 274 273 274 275 275 277 278 275 275 272 269 263 259 250 242 237 233 236 231 228 231 232 233 236 238 242 244 248 247 249 252 255 257 266 262
304 300 295 291 287 282 278 277 276 274 271 272 272 272 272 272 272 274 272 270 268 268 260 256 250 243 236 232 227 230 234 238 235 234 238 238 241 242 243 245 247 254 257 254 258 257 256
302 297 293 289 285 281 279 276 275 273 271 271 270 268 267 267 266 266 268 265 261 260 255 251 244 241 234 230 224 226 227 232 235 238 240 240 242 247 250 252 254 252 253 258 259 261 261
302 298 293 288 284 279 273 271 269 268 267 266 264 263 263 263 262 261 261 259 257 254 253 246 242 236 231 228 225 224 228 230 232 239 242 243 244 245 247 250 256 260 260 260 260 259 261
306 300 295 289 284 278 272 267 264 265 265 262 260 260 260 258 257 255 255 252 249 248 243 240 237 232 226 224 223 225 230 232 236 238 241 243 246 249 252 255 255 255 259 260 261 259 263
311 306 300 292 287 280 274 269 266 264 264 262 260 258 257 252 248 245 246 244 244 239 237 236 231 228 222 220 221 227 230 232 236 242 244 244 245 250 251 253 255 256 257 260 260 262 264
317 312 303 295 291 284 279 270 264 263 263 261 256 250 246 242 238 234 234 232 228 229 229 229 226 223 220 221 221 226 231 234 238 240 243 245 247 249 251 252 254 256 258 260 262 264 265
319 317 310 302 296 286 276 268 261 256 254 246 239 229 227 227 224 221 222 224 226 223 226 224 221 219 221 224 225 225 230 235 239 242 244 247 248 248 249 252 255 259 260 264 266 266 267
322 323 318 313 306 289 284 265 257 234 231 227 227 224 216 213 215 217 218 220 216 217 217 217 214 221 227 225 226 228 233 238 241 243 246 252 254 255 257 259 262 262 262 262 264 267 269
324 327 324 321 320 309 288 260 229 246 212 228 239 227 223 223 224 221 215 214 218 219 220 216 219 225 233 231 230 231 234 239 245 251 255 258 260 261 258 258 258 260 262 264 266 269 271
321 322 319 321 323 311 278 239 213 187 196 222 232 234 235 237 225 215 210 211 213 216 224 227 227 230 235 234 235 237 242 246 250 253 256 257 255 257 255 258 260 260 262 266 270 273 275
315 312 314 313 305 280 251 220 198 189 209 197 207 226 239 245 232 221 216 217 222 225 232 227 230 237 236 237 239 240 244 247 251 254 255 256 256 257 259 260 261 265 268 270 272 273 274
303 299 305 316 308 261 215 220 202 199 201 212 201 220 228 211 212 213 220 220 230 231 231 232 237 241 240 240 242 244 246 248 250 253 255 258 259 260 261 264 265 266 268 270 272 273 275
301 287 294 294 289 252 233 230 222 224 228 230 229 226 226 234 231 228 230 232 234 238 240 238 243 245 245 245 248 251 251 254 255 256 258 259 261 261 262 263 264 266 268 270 272 273 274
299 288 279 267 260 260 246 238 229 236 233 228 230 231 230 236 235 237 235 236 238 239 241 244 243 244 246 247 245 251 254 255 259 259 261 263 263 264 264 264 265 267 268 269 269 271 271
296 290 282 271 262 252 248 233 235 240 237 241 241 237 237 245 249 247 248 249 248 248 250 249 249 250 251 253 255 257 258 259 261 262 263 265 267 267 267 267 268 269 269 270 272 271 273
300 287 282 279 266 259 253 241 239 244 238 238 241 240 242 244 245 253 255 251 249 252 254 256 256 256 256 256 256 258 259 262 264 264 266 269 271 271 271 271 271 272 272 272 272 272 274
310 296 284 276 270 262 252 253 252 251 248 244 244 246 248 249 250 250 252 254 255 256 256 258 258 258 258 258 257 258 260 262 264 266 268 269 271 271 272 273 274 274 276 276 277 278 279